Theta_e
315 314 314 314 314 315 316 315 314 316 314 316 315 314 313 316 316 316 317 317 317 317 317 318 317 317 316 316 318 322 323 322 321 322 325 328 328 327 326 326 330 330 328 331
314 314 315 316 316 316 316 315 314 314 314 315 314 313 313 314 315 316 317 317 317 317 317 317 317 318 317 316 316 319 321 320 318 320 320 322 322 321 320 321 322 322 323 325
315 315 315 316 315 316 315 314 314 314 315 313 313 313 313 314 315 315 316 317 317 317 317 317 317 317 317 317 316 315 316 316 316 317 318 320 322 321 318 316 315 317 318 319
314 314 314 315 315 314 314 314 314 315 314 313 315 313 313 313 312 314 317 317 317 317 316 316 317 317 318 317 317 316 315 315 315 315 316 316 315 315 314 314 313 313 313 315
314 314 314 314 314 314 315 314 314 315 315 316 315 313 312 311 312 312 315 317 317 317 318 318 318 317 317 317 317 316 315 314 314 314 314 314 314 314 314 314 313 313 312 312
314 312 314 314 312 314 314 315 316 316 315 312 313 313 311 311 314 315 316 317 317 317 317 317 317 317 317 316 316 316 315 314 313 313 313 313 313 313 313 313 313 312 312 311
314 313 312 313 313 313 315 314 313 316 316 314 314 312 312 313 313 314 315 316 316 315 316 315 315 315 315 315 315 314 314 314 313 312 312 313 313 313 313 313 312 312 312 311
317 317 313 311 313 313 313 313 313 314 316 314 310 312 313 314 315 315 315 315 315 315 315 315 316 315 314 315 316 315 314 313 312 312 312 312 312 312 312 312 312 312 312 311
316 317 312 312 313 313 314 314 314 314 305 311 313 312 313 313 313 313 315 315 315 315 316 315 315 315 314 315 315 316 315 314 313 313 313 313 312 312 312 312 311 311 311 311
315 315 312 311 311 312 313 313 314 313 313 312 311 311 312 313 313 312 313 316 316 316 316 316 315 315 314 314 314 316 316 315 315 314 314 314 314 313 312 311 311 311 311 311
314 314 312 311 311 312 312 311 313 313 312 314 312 311 313 313 313 313 314 316 315 316 315 315 314 314 314 314 315 315 316 315 316 315 315 315 315 313 312 312 311 310 310 310
313 314 312 312 311 310 311 311 312 312 313 310 311 314 313 312 312 313 315 315 315 315 316 315 314 314 315 315 315 315 316 316 316 316 316 316 315 314 313 312 311 311 310 310
314 314 312 315 315 311 312 312 312 311 309 312 312 313 311 312 312 314 315 315 315 315 315 315 315 314 314 314 315 316 316 316 314 314 315 316 315 314 314 314 312 310 310 309
314 315 315 316 317 316 315 315 315 314 314 313 313 313 313 313 312 313 314 315 315 316 315 315 315 315 314 314 315 314 314 314 314 313 314 314 315 314 314 313 312 310 310 308
313 313 313 313 314 315 314 315 316 317 317 316 315 314 314 314 313 314 315 315 315 315 315 315 315 315 315 314 314 314 314 313 313 313 313 313 313 313 313 312 311 310 309 308
309 311 309 307 310 309 308 308 309 312 314 315 316 315 313 314 314 314 314 314 315 315 315 315 315 315 314 314 313 313 313 313 312 312 312 312 312 312 311 311 310 309 308 307
310 309 309 305 307 308 311 308 308 310 310 312 314 314 313 313 314 314 314 314 314 314 314 314 315 314 314 314 314 313 313 312 312 311 311 311 310 310 310 310 308 307 307 306
304 306 304 303 301 306 307 305 308 310 310 313 314 314 313 314 314 314 315 313 313 313 314 314 314 314 314 313 313 312 312 311 310 311 312 311 310 309 308 307 307 306 305 305
305 304 298 302 301 302 303 302 302 303 305 309 309 309 308 307 308 310 310 309 307 308 309 311 311 311 311 311 312 312 312 312 312 312 312 311 310 309 308 306 305 303 302 302
303 304 304 296 298 296 302 302 304 303 304 304 306 306 306 306 307 308 309 308 307 306 307 308 309 310 310 310 309 309 309 309 310 310 310 310 309 308 307 305 303 301 300 300
302 299 304 303 304 303 302 302 304 304 303 304 303 303 303 304 305 305 305 306 307 308 308 308 308 308 307 307 308 308 308 308 308 308 308 308 307 305 303 301 299 299 298 297
298 297 299 299 304 303 305 306 308 306 304 304 304 302 303 304 304 304 305 305 305 307 308 308 308 308 307 308 307 306 306 306 305 305 304 303 303 302 300 298 297 296 295 294
297 297 293 298 298 302 302 301 301 303 303 305 304 302 304 304 303 303 303 305 306 305 305 307 308 308 305 304 305 306 305 304 302 302 301 300 299 298 298 296 295 295 293 294
296 299 296 297 297 298 299 300 300 300 298 298 298 299 300 300 301 301 302 304 305 305 305 304 305 306 307 307 303 301 301 302 301 299 297 297 296 295 294 294 293 293 294 292
295 296 295 295 297 298 299 298 300 299 298 299 299 297 296 298 300 301 302 302 303 302 302 301 300 301 301 301 300 298 298 298 297 297 295 294 293 293 292 292 292 292 291 291
295 295 295 296 296 296 297 297 297 296 296 297 297 296 296 297 299 300 301 301 301 301 299 297 298 299 299 297 297 297 296 293 294 295 295 295 295 294 293 292 291 291 291 292
Wind_Speed
3 2 5 9 8 8 4 6 8 3 3 3 7 11 10 20 22 19 21 25 27 28 27 24 29 33 32 35 35 38 39 40 39 40 40 41 40 39 38 37 35 40 40 34
3 5 9 1 4 1 2 5 8 8 6 1 7 12 12 12 21 27 28 29 30 30 28 28 30 33 34 34 37 39 41 41 40 41 41 41 40 40 40 39 40 40 40 38
6 2 0 4 1 2 5 6 6 7 2 5 4 8 9 11 28 26 28 33 32 31 31 26 28 33 35 35 37 40 42 43 42 41 40 41 40 42 43 43 43 44 42 38
6 6 4 4 4 6 5 3 8 4 6 3 5 6 8 10 12 8 22 25 27 26 25 25 25 27 36 36 33 36 40 43 43 41 42 43 45 45 44 41 40 42 43 42
3 6 5 5 5 6 2 3 5 2 2 5 5 3 7 8 8 10 13 22 22 23 16 17 19 22 29 30 33 32 35 40 42 42 43 44 45 44 44 42 39 38 38 43
1 1 2 2 4 1 8 4 3 1 1 5 9 8 5 7 4 3 3 1 3 5 7 10 15 18 22 26 29 32 32 35 39 42 43 45 45 44 44 44 43 40 39 40
5 6 3 3 5 5 3 5 1 2 0 7 2 4 9 9 9 2 4 12 14 15 12 11 11 12 16 22 26 29 30 31 34 38 41 42 42 43 43 43 43 42 41 41
8 4 11 7 8 8 8 7 5 7 4 4 5 8 6 4 2 7 8 12 19 24 20 23 20 21 18 19 20 21 24 27 30 33 35 37 38 42 42 43 45 45 43 40
6 6 1 6 2 5 6 7 5 4 3 3 5 10 13 8 6 11 17 17 13 16 16 16 22 17 20 19 19 19 19 20 23 24 26 28 31 35 37 39 43 44 43 39
3 3 2 4 3 6 4 1 2 2 4 5 8 7 13 6 9 9 3 5 13 16 16 16 13 14 18 20 18 16 15 14 15 17 19 21 24 27 30 34 39 43 42 39
5 4 0 4 6 8 3 4 3 3 4 5 3 7 5 4 7 7 5 8 17 15 14 14 9 12 15 15 14 12 11 9 10 11 14 18 21 24 26 29 33 37 40 41
4 2 3 7 3 2 5 7 9 4 3 4 4 14 5 5 4 9 4 9 8 12 12 14 17 16 11 10 11 10 9 9 8 14 19 21 22 25 26 28 30 33 36 39
2 1 2 7 2 4 3 5 6 9 1 13 4 11 6 2 11 19 11 25 24 15 12 14 23 27 25 25 24 18 17 15 13 18 22 24 24 27 28 28 29 33 35 37
6 1 4 5 4 7 4 6 8 7 5 11 12 22 31 20 15 21 27 28 26 19 17 21 30 33 30 29 28 26 26 28 29 29 28 28 27 27 32 32 31 32 34 35
5 4 4 13 13 11 2 6 10 12 14 15 21 17 28 23 14 18 26 29 30 29 29 32 33 38 37 35 31 32 34 34 32 34 32 31 32 34 37 36 35 34 34 32
3 2 1 6 6 7 12 15 13 14 18 22 22 22 17 32 32 28 29 28 29 26 32 34 35 31 32 33 33 30 32 35 32 34 35 34 35 36 36 34 35 36 36 33
5 4 3 6 3 3 7 20 16 16 16 13 19 24 21 19 25 33 28 29 40 41 39 36 35 34 33 30 28 33 35 31 32 30 29 30 33 36 36 36 36 36 36 34
5 4 3 5 4 8 7 4 7 13 12 11 13 15 22 25 31 35 28 26 28 29 31 30 29 29 29 29 30 31 32 32 30 27 24 24 26 28 32 34 36 36 35 34
13 5 2 3 8 12 19 18 12 13 23 9 4 7 11 23 23 25 8 25 29 29 28 26 25 23 23 24 23 24 26 28 29 28 27 26 25 25 26 29 30 32 33 33
15 13 8 3 5 7 7 5 13 15 15 7 9 7 11 17 7 9 32 35 31 27 27 27 27 28 26 25 25 23 23 23 23 23 25 26 26 27 26 25 25 27 29 29
5 5 15 13 12 6 9 22 17 5 7 2 9 13 18 6 10 30 34 32 30 28 29 30 29 28 28 26 26 26 25 24 24 24 24 24 23 22 21 20 21 21 22 23
6 6 5 6 9 15 11 8 4 2 14 21 19 26 21 21 28 29 30 34 34 29 32 35 37 36 33 31 30 27 25 24 24 24 22 20 19 17 16 16 15 16 17 17
6 8 4 6 5 3 7 10 17 12 17 17 12 19 20 23 27 31 35 37 36 35 32 30 30 38 36 29 27 27 26 24 21 20 19 16 14 13 12 11 11 11 12 14
4 8 4 1 12 19 23 29 29 6 11 18 19 23 22 29 33 34 33 35 34 33 34 33 33 33 33 31 27 25 22 20 19 16 15 12 9 8 7 6 6 7 6 9
6 5 1 5 8 11 20 20 19 19 28 33 37 35 41 39 37 31 30 31 32 32 32 31 30 28 28 23 20 21 18 16 12 7 5 4 2 2 4 5 6 5 5 4
13 15 8 13 15 17 21 27 31 38 38 37 39 46 49 44 39 34 34 32 33 35 32 30 27 24 21 19 16 16 14 11 7 4 4 4 6 6 6 5 5 7 9 10
Wind_Direction
177 208 208 212 226 261 51 321 335 346 128 172 235 266 259 270 270 259 255 247 248 249 244 249 245 247 247 237 232 231 232 235 235 231 229 231 234 237 236 233 227 235 237 235
117 232 245 230 29 186 166 272 281 283 114 212 275 273 267 256 261 252 252 255 254 255 254 250 247 243 245 246 235 232 236 239 239 235 236 236 240 244 246 244 240 239 242 236
212 156 176 132 162 208 240 240 262 265 168 219 285 270 258 248 239 253 255 256 258 257 256 253 245 242 243 246 243 237 238 240 241 240 238 238 238 241 245 243 242 242 243 240
227 209 159 182 221 183 257 343 241 316 344 251 51 288 294 305 296 225 239 250 257 262 263 260 248 248 243 251 256 247 239 238 241 240 239 239 241 241 250 251 248 247 245 239
211 169 173 183 178 189 206 36 80 80 271 302 194 265 267 230 260 260 250 258 272 267 270 267 258 244 249 248 251 251 247 241 240 241 241 242 243 245 249 251 251 250 248 239
48 29 271 191 57 89 137 95 100 147 203 275 181 202 226 230 238 306 335 309 324 347 276 271 251 250 248 251 248 250 250 246 241 241 242 243 245 246 246 250 251 252 250 244
189 189 140 136 87 13 184 145 247 301 97 241 104 252 232 290 299 279 289 302 296 311 297 294 278 257 252 248 250 251 249 247 242 241 243 244 245 249 250 253 255 253 253 250
202 218 157 190 192 171 204 186 174 202 194 263 359 244 260 204 360 306 313 311 308 308 316 308 291 281 267 253 249 247 246 244 243 244 246 248 248 251 254 254 258 259 258 256
205 224 93 147 147 140 181 218 263 330 57 22 228 272 288 248 230 261 284 297 315 321 312 301 293 277 261 250 247 252 251 246 244 248 250 253 254 255 256 255 259 261 261 258
318 272 352 92 83 282 191 244 165 243 184 224 256 267 246 313 293 276 345 28 359 347 324 325 300 283 259 263 258 252 246 242 242 246 252 257 261 260 260 258 255 261 265 261
185 225 32 121 198 178 155 213 220 171 199 179 253 257 197 207 106 83 45 352 329 333 332 341 333 287 271 272 259 245 240 249 258 266 268 264 266 263 263 261 261 260 261 262
206 329 242 203 48 0 224 220 199 156 236 217 204 269 82 322 344 312 318 335 331 334 332 358 7 2 346 314 279 254 259 256 287 296 280 275 271 269 264 265 263 264 261 261
353 183 58 324 245 49 244 225 231 230 78 245 189 256 110 28 341 320 321 311 308 304 297 314 326 325 326 327 310 276 259 258 283 297 289 278 278 274 271 269 265 263 263 261
48 234 210 218 110 67 341 340 323 275 247 264 247 268 281 280 290 294 294 297 306 306 298 309 307 304 304 311 307 292 284 284 285 287 284 276 273 279 276 270 265 262 263 260
155 220 236 267 287 318 312 273 277 278 280 249 263 249 270 284 287 298 300 306 307 302 302 297 293 294 297 300 295 290 292 292 290 287 284 276 275 278 275 270 267 265 264 260
155 227 173 264 245 260 284 275 258 262 255 262 270 276 271 291 292 292 292 298 303 312 308 302 295 294 295 297 293 290 287 287 288 284 280 277 274 271 272 269 267 266 266 262
167 158 161 260 70 356 262 243 242 247 250 250 260 264 276 278 288 287 299 312 302 300 297 295 296 296 295 293 287 286 286 282 280 281 281 278 274 272 270 270 267 265 264 264
171 204 147 274 50 265 238 339 248 243 258 244 254 262 263 268 287 295 300 314 321 317 313 305 298 294 291 288 285 280 281 282 282 283 284 281 276 272 270 268 266 264 262 261
201 167 236 215 243 281 302 283 281 273 279 260 302 358 341 336 327 297 318 338 337 326 324 322 319 315 306 301 297 294 290 286 286 286 285 284 279 275 272 268 266 264 261 259
217 217 209 216 203 221 245 247 261 259 262 6 32 13 339 341 327 298 318 328 335 335 332 324 313 311 308 303 302 301 301 299 297 294 290 285 281 278 275 270 264 262 261 260
173 215 225 232 240 256 254 274 288 226 276 90 353 337 320 292 285 299 315 316 312 324 333 331 329 323 318 312 306 304 303 302 302 301 296 290 285 279 272 265 258 255 252 253
180 173 194 222 240 256 226 295 230 68 305 298 308 308 292 294 300 301 307 305 305 310 314 320 323 320 315 311 310 307 304 306 307 303 298 291 284 278 274 267 259 252 249 246
243 212 203 188 211 262 287 300 312 328 301 301 310 314 303 296 303 304 297 294 295 301 306 306 303 309 308 307 305 303 303 307 305 301 295 288 283 277 267 257 253 250 246 241
276 269 239 253 253 260 284 294 305 328 327 320 317 309 306 302 308 305 306 302 302 306 302 299 293 291 288 296 302 301 299 302 300 298 291 281 277 269 251 235 225 219 220 239
238 330 262 278 302 296 282 289 304 306 312 307 306 309 312 306 306 305 305 305 306 306 301 298 296 290 286 289 296 294 297 294 282 277 268 259 218 194 198 166 160 170 167 176
239 251 251 264 273 284 280 285 291 298 294 296 303 305 302 297 298 300 301 305 308 308 304 299 295 291 293 293 293 296 300 274 249 201 198 174 133 134 132 133 141 127 114 110